Retour au catalogue

DELTA 1 DEB

ActifSSO
NORAD 37649·DEBRIS·🇺🇸 United States

Lancé Mar 5, 1978 depuis Vandenberg Space Force Base

Loading…

Prochains Passages (prochaines 24 heures)

TLE

FraisSource: Space-Track

Époque: Sep 13, 2026, 13:27 UTC

1 37649U 78026JL  26256.56104007  .00000007  00000-0  41087-4 0  9997
2 37649  99.0680 184.7431 0057071 176.3237 183.8351 13.88190498184799

Suivez DELTA 1 DEB en temps réel avec AllMySat

Download on the App Store